STARLINK-33625, 63327

Orbit data source: Space-Track

STARLINK-33625, 63327 is a payload satellite owned by SpaceX/Seattle (US) in LEO that was launched on Tue, 18 Mar 2025 UTC via an FALCON 9 launch vehicle from the Air Force Eastern Test Range (AFETR). Payload-class satellites include a variety of spacecraft equipped with specific instruments for various scientific and technological missions. These include communications satellites like Starlink; space stations such as the ISS; scientific satellites like the Hubble; Earth observation satellites from companies like Planet Labs, Umbra, and HawkEye 360; GPS; miniature CubeSats for education and research; and military/defense satellites.

Loading next visibility...
Identifier
63327, 2025-057W
Orbit
LEO
Country
Flag of USUS
Related business
Manufacturer
SpaceX/Seattle
Mission
Operational Commercial Communications
Bus & Motor
STARLINK V2MO, Unknown motor
Mass
575 kg wet, ~530 kg dry
Launch date (UTC)
2025-03-18 (9 months ago)
Launch vehicle
FALCON 9
Launch site
Air Force Eastern Test Range (AFETR)
Object type
Payload
Rocket body
Debris
Shape & HBR
Box + 2 Pan, 17.7 m
Radar Cross Section
36.964 m², Large (>1 m²)

Expand to show TLE details & history
Last TLE update: 14 hours ago

TLE from 14 hours ago
0 STARLINK-33625
1 63327U 25057W   25341.94125493  .00031679  00000-0  11549-2 0  9990
2 63327  43.0025 181.3911 0001971 263.1122  96.9506 15.27605770 41837
Epoch: 2025-12-07T22:35Z
TLE epoch observation values (Epoch: 2025-12-07T22:35:24.425Z)
Latitude
-0°
Longitude
125.59191°
Altitude
482.912 km
Speed
7.626 km/s
True Right ascension
12h 05m 33s
True Declination
0° 00' 00"
Sunlit
Object was in daylight at epoch
Visualization orbit readout
Latitude
Unknown
Longitude
Unknown
Altitude
Unknown
Speed
Unknown
Apparent Right ascension
Unknown
Apparent Declination
Unknown
Sunlit
N/A
Visualization observer readout
Local Sidereal Time
11:09:57
Azimuth
Unknown
Elevation
Unknown
Doppler factor
Unknown
Orbital elements
Apogee altitude
486.269 km
Perigee altitude
483.564 km
Semi-major axis
6,863.054 km
Eccentricity
0.0002
Inclination
43.0025°
RAAN
181.3911°
Arg. of periapsis
263.1122°
True anomaly
96.97302°
Mean anomaly
96.9506°
Eccentric anomaly
96.96181°
Mean motion
3.81739 °/min
Orbital period
94.31 mins
BSTAR
0.0011549
Loading maneuver chart data...
Computing Atmospheric mass density...
Loading historical data...
Loading historical data...
Loading historical data...
Loading historical data...
Loading historical data...
Loading historical data...
Loading historical data...

Documentation

Showing up to 5 results
|